Regional Weather Roundup
Issued by NWS

Home | Current Version | Previous Version | Graphics & Text | Print | Product List | Glossary On
Versions: 1 2 3 4 5 6 7 8 9 10 11 12 13 14 15 16 17 18 19 20 21 22 23 24 25 26 27 28 29 30 31 32 33 34 35 36 37 38 39 40 41 42 43 44 45 46 47 48 49 50
000
ASUS43 KMPX 180901
RWRMN
WEATHER ROUNDUP FOR MINNESOTA
NATIONAL WEATHER SERVICE TWIN CITIES/CHANHASSEN MN
300 AM CST THU DEC 18 2014


NOTE: "FAIR" INDICATES FEW OR NO CLOUDS BELOW 12,000 FEET WITH NO
SIGNIFICANT WEATHER AND/OR OBSTRUCTIONS TO VISIBILITY. N/A MEANS
CURRENT SKY AND/OR WEATHER CONDITIONS ARE NOT AVAILABLE.

MNZ060>063-068>070-181000-
   Twin Cities Metro

CITY           SKY/WX    TMP DP  RH WIND       PRES   REMARKS
TWIN CITIES    PTCLDY    12   8  84 CALM      30.33S
ST PAUL        CLOUDY    15  11  83 NW5       30.35S WCI   8
CRYSTAL        CLOUDY    12   8  84 CALM      30.32S
BLAINE         FLURRIES  12  12 100 CALM      30.32S
LAKEVILLE      PTCLDY     9   7  92 CALM      30.32S
EDEN PRAIRIE   PTCLDY    12   8  84 N3        30.32S
SOUTH ST PAUL  CLOUDY    14  10  85 CALM      30.33S
LAKE ELMO      CLOUDY    16  12  86 CALM      30.33S
$$
MNZ001>005-007-008-013>017-022>024-027-028-181000-
   Northwest Minnesota

CITY           SKY/WX    TMP DP  RH WIND       PRES   REMARKS
BEMIDJI        PTCLDY     2  -2  83 CALM      30.28R
HALLOCK        PTCLDY     7   3  85 CALM      30.29R
ROSEAU         PTCLDY     5   0  78 CALM      30.29S
WARROAD        PTCLDY     7   1  78 E3        30.30S
THIEF RVR FALL PTCLDY     9   9 100 E7        30.27F WCI  -3
CROOKSTON      PTCLDY     7   3  85 SE3       30.31R
FOSSTON        MOCLDY     3   1  92 CALM      30.28S
DETROIT LAKES  PTCLDY     7   5  92 S3        30.28R
MOORHEAD       PTCLDY    10   9  92 SE5       30.30S WCI   2
PARK RAPIDS    PTCLDY     2  -2  83 W3        30.27R
MAHNOMEN       FAIR       7   4  88 SE6       30.27S WCI  -3
$$
MNZ006-009>011-018-025>026-181000-
   North Central Minnesota

CITY           SKY/WX    TMP DP  RH WIND       PRES   REMARKS
BAUDETTE       MOCLDY     5   0  79 E5        30.29S WCI  -4
FLAG ISLAND    MOCLDY     9   3  78 SE5       30.30S WCI   0
INTL FALLS     PTCLDY     0  -4  83 SE3       30.32S
WASKISH        PTCLDY     3   1  92 CALM      30.29S
BIG FORK       PTCLDY     0  -4  85 MISG      30.30S
LONGVILLE      PTCLDY     0  -2  92 CALM      30.29R
GRAND RAPIDS   PTCLDY     1  -2  85 CALM      30.27F
CRANE LAKE     PTCLDY    -8  -9  92 CALM      30.36S
ORR            PTCLDY    -2  -8  78 CALM      30.29R
COOK           FLURRIES   3   0  85 CALM      30.32S
WALKER         FAIR       0  -4  85 CALM      30.28R
$$
MNZ012-019>021-037-181000-
   Northeast Minnesota

CITY           SKY/WX    TMP DP  RH WIND       PRES   REMARKS
DULUTH         FLURRIES  18  13  80 N5        30.28S WCI  11
ELY            MOCLDY    -4  -8  84 CALM      30.33R
HIBBING        CLOUDY    12   6  77 E3        30.30S
EVELETH        FLURRIES  12  10  92 CALM      30.32R
DULUTH HARBOR  CLOUDY    21  18  86 CALM      30.35S
SILVER BAY     CLOUDY    21  16  79 CALM      30.31R
GRAND MARAIS     N/A      8   1  73 N6        30.37R WCI  -2
G MARAIS ARPRT MOCLDY     0  -6  78 CALM      30.28R
$$
MNZ029>031-032-039>041-046>048-054>057-064-181000-
   West Central Minnesota

CITY           SKY/WX    TMP DP  RH WIND       PRES   REMARKS
FERGUS FALLS   PTCLDY    10   7  85 E3        30.32S
WHEATON        MOCLDY     1   0  92 CALM      30.31S
MORRIS         PTCLDY     7   3  85 SE5       30.28S WCI  -2
ALEXANDRIA     PTCLDY     9   6  88 E5        30.27F WCI   1
ELBOW LAKE     FAIR       9   7  90 E5        30.28S WCI   1
WADENA         PTCLDY     1   0  92 CALM      30.28S
GLENWOOD       PTCLDY     7   5  92 E5        30.28S WCI  -2
APPLETON       PTCLDY     3   0  85 CALM      30.30S
BENSON         PTCLDY     9   7  92 S3        30.30R
ORTONVILLE     PTCLDY     5   1  85 SW3       30.29S
MADISON        PTCLDY     5   1  85 CALM      30.30F
WILLMAR        FAIR      10   7  85 E5        30.31S WCI   2
$$
MNZ033>034-036-042>043-049>051-058-059-181000-
   Central Minnesota

CITY           SKY/WX    TMP DP  RH WIND       PRES   REMARKS
ST CLOUD       MOCLDY    10   4  76 CALM      30.32S
SAUK CENTRE    FAIR       6   3  88 NE5       30.29F WCI  -3
PAYNESVILLE    PTCLDY     6   4  95 CALM      30.30F
AITKIN         PTCLDY     1  -4  78 CALM      30.30R
PINE RIVER     PTCLDY     1   0  92 CALM      30.32S
BRAINERD       PTCLDY     1  -2  87 CALM      30.31R
STAPLES        PTCLDY     3   1  92 CALM      30.30R
LONG PRAIRIE   FAIR       5   3  92 CALM      30.29S
LITTLE FALLS   MOCLDY     5   1  85 CALM      30.32R
LITCHFIELD     PTCLDY    10  10 100 CALM      30.31S
BUFFALO        PTCLDY     9   6  89 CALM      30.33F
MAPLE LAKE     PTCLDY    10   8  92 CALM      30.33S
$$
MNZ037-044-045-052-053-181000-
   East Central Minnesota

CITY           SKY/WX    TMP DP  RH WIND       PRES   REMARKS
PRINCETON      PTCLDY     7   3  85 CALM      30.32S
MORA           CLOUDY    14  10  85 CALM      30.34R
CAMBRIDGE      FLURRIES  16   9  73 CALM      30.31S
RUSH CITY      CLOUDY    18  14  86 CALM      30.33S
MOOSE LAKE     CLOUDY    16  12  86 CALM      30.30S
HINCKLEY       CLOUDY    18  14  86 CALM      30.33R
CLOQUET        FLURRIES  18  14  86 NW3       30.30S
MCGREGOR       PTCLDY     7   3  85 CALM      30.31S
$$
MNZ071>073-080-081-089-090-097-098-181000-
   Southwest Minnesota

CITY           SKY/WX    TMP DP  RH WIND       PRES   REMARKS
MONTEVIDEO     PTCLDY     3   1  92 CALM      30.31S
GRANITE FALLS  PTCLDY     4   2  88 CALM      30.32F
CANBY          PTCLDY     2   0  90 CALM      30.29F
MARSHALL       PTCLDY     1  -2  85 CALM      30.28S
REDWOOD FALLS  PTCLDY     8   4  83 CALM      30.31S
OLIVIA         PTCLDY    12   9  85 CALM      30.30S
PIPESTONE      CLOUDY    12  10  92 CALM      30.22S
WINDOM           N/A      5   1  85 CALM      30.27F
WORTHINGTON    CLOUDY    10   9  92 NE3       30.25F
JACKSON        PTCLDY    10   5  79 CALM      30.26F
TRACY          PTCLDY     6   4  90 CALM      30.27F
SLAYTON        MOCLDY     7   5  93 CALM      30.25F
$$
MNZ065>067-074>077-082>085-091>093-181000-
   South Central Minnesota

CITY           SKY/WX    TMP DP  RH WIND       PRES   REMARKS
MANKATO        MOCLDY    14   9  79 E3        30.31R
NEW ULM        CLOUDY    16  12  86 SW5       30.31S WCI   9
ST JAMES       CLOUDY    12  10  92 CALM      30.31F
FAIRMONT       MOCLDY    10   5  79 N5        30.28F WCI   2
GLENCOE        PTCLDY    10   9  92 CALM      30.31S
FARIBAULT      PTCLDY     9   7  92 CALM      30.31S
OWATONNA       PTCLDY    10   7  85 CALM      30.30S
WASECA         PTCLDY    12   9  85 CALM      30.32R
ALBERT LEA     PTCLDY    16  12  86 CALM      30.29S
$$
MNZ078>079-086>088-094>096-181000-
   Southeast Minnesota

CITY           SKY/WX    TMP DP  RH WIND       PRES   REMARKS
ROCHESTER      PTCLDY    14  10  84 CALM      30.29R
RED WING       FLURRIES  16  12  86 CALM      30.33R
STANTON        PTCLDY    10   7  87 CALM      30.32R
DODGE CENTER   CLEAR     12  10  92 N3        30.28S
WINONA         CLOUDY    19  14  79 CALM      30.34S
AUSTIN         PTCLDY    12  10  92 CALM      30.29R
PRESTON        PTCLDY    13  11  90 N3        30.28S
$$
ABBREVIATIONS USED IN REMARKS
   TC - TEMPERATURES IN CELSIUS
  WCI - WIND CHILL INDEX
   HX - HEAT INDEX
  VSB - VISIBILITY
$$


USA.gov is the U.S. government's official web portal to all federal, state and local government web resources and services.